Theta_e
284 283 282 282 281 280 280 280 279 279 280 280 280 280 280 280 280 280 280 279 279 280
283 282 281 281 281 280 280 279 279 279 279 279 280 280 279 279 279 279 280 280 280 279
282 281 281 280 279 279 279 279 279 278 279 279 279 279 279 279 279 279 279 280 279 279
280 280 280 279 279 279 279 279 279 279 278 278 278 278 278 278 278 278 278 279 278 279
279 279 279 278 278 279 278 279 279 278 278 278 278 278 278 278 279 278 278 278 278 279
277 278 277 277 278 278 278 278 278 278 278 278 278 278 279 278 278 278 278 279 278 279
277 277 277 278 278 278 278 278 278 278 278 278 278 278 278 278 278 279 279 280 280 281
277 277 277 277 277 278 278 278 278 278 278 278 278 279 278 279 279 280 280 281 282 282
277 277 277 277 277 278 278 277 277 277 277 277 278 279 282 283 282 282 282 281 282 282
277 277 277 277 277 277 276 276 276 276 276 276 277 280 282 284 284 282 282 281 281 281
277 276 276 276 276 275 276 275 276 276 277 277 278 280 282 283 283 282 282 282 281 281
276 275 275 275 275 275 275 276 276 277 277 276 277 280 281 282 283 281 281 282 282 282
275 275 274 274 274 275 275 276 276 277 277 277 277 278 281 283 282 280 280 282 282 282
274 273 274 274 275 275 274 275 274 275 276 276 277 278 281 282 282 281 281 280 280 281
Wind_Speed
14 9 9 11 9 7 6 6 8 7 7 8 6 5 5 3 3 3 2 2 2 2
10 12 11 12 10 7 8 7 8 8 7 6 6 5 5 3 4 3 2 2 2 2
9 10 10 10 10 10 9 10 9 8 7 6 6 5 5 4 4 3 2 2 2 3
9 10 10 9 10 10 10 9 8 8 7 5 4 4 3 3 3 3 2 2 3 4
12 11 12 11 11 10 9 8 8 6 5 5 4 3 2 1 0 2 3 3 4 5
12 12 11 11 10 9 9 8 7 6 5 4 3 2 2 2 3 4 4 5 5 6
13 12 10 10 9 8 7 8 6 5 4 3 2 3 4 4 4 5 5 6 7 7
11 11 11 9 8 7 6 6 5 4 4 4 3 3 3 4 6 6 6 6 7 8
10 9 9 8 7 6 5 4 4 3 2 2 2 4 7 7 6 5 5 6 7 8
9 8 7 6 6 5 5 4 3 3 2 2 2 5 7 8 1 2 5 6 8 8
8 7 7 6 5 5 4 4 3 3 3 3 2 4 6 7 0 4 6 7 9 9
6 6 6 5 4 3 3 3 3 4 4 3 3 5 6 6 4 4 7 7 8 8
5 4 3 3 3 2 2 2 3 3 2 4 2 5 7 7 1 4 6 6 7 10
3 3 3 3 2 2 2 2 1 2 2 3 3 4 7 8 3 4 5 5 6 7
Wind_Direction
153 150 153 155 153 152 155 148 149 139 140 138 138 135 134 129 130 137 144 174 204 247
145 145 148 142 143 143 131 137 139 139 140 139 139 144 146 147 152 161 183 193 225 255
136 133 135 136 135 135 136 138 144 145 149 150 152 156 161 160 159 174 178 206 230 258
120 117 118 118 121 127 131 140 144 147 148 151 155 160 163 163 173 179 197 230 240 267
119 119 120 123 124 130 132 136 139 140 140 141 142 150 164 203 260 243 250 268 265 275
107 108 113 119 123 127 129 126 125 127 132 135 141 161 199 237 246 245 261 266 271 280
109 110 112 112 113 117 126 128 129 127 128 134 161 222 228 225 234 253 260 268 270 277
106 113 117 117 119 123 128 124 131 148 154 177 199 220 209 242 250 257 270 271 276 277
111 114 119 126 134 142 140 133 131 153 173 180 239 235 256 256 237 229 247 274 284 279
122 126 128 128 132 133 131 134 151 163 179 196 246 280 267 281 271 214 269 283 290 295
129 128 130 135 139 141 140 140 155 183 215 237 240 272 288 296 27 277 282 288 290 289
117 127 140 146 150 148 148 152 186 207 220 238 276 288 290 283 264 276 290 290 282 282
121 132 138 144 145 135 156 180 215 227 216 275 292 303 290 297 205 284 289 285 282 294
102 127 146 151 160 158 181 178 217 257 284 279 274 288 302 306 303 274 280 297 315 308